TimeCDT,TemperatureF,Dew PointF,Humidity,Sea Level PressureIn,VisibilityMPH,Wind Direction,Wind SpeedMPH,Gust SpeedMPH,PrecipitationIn,Events,Conditions,WindDirDegrees,DateUTC
12:56 AM,32.0,21.0,64,30.35,-9999.0,West,6.9,-,N/A,,Unknown,280,2012-10-27 05:56:00
1:56 AM,27.0,19.0,72,30.35,-9999.0,West,5.8,-,N/A,,Unknown,280,2012-10-27 06:56:00
2:56 AM,26.1,21.0,81,30.35,-9999.0,WSW,3.5,-,N/A,,Unknown,250,2012-10-27 07:56:00
3:56 AM,25.0,19.0,78,30.35,-9999.0,West,4.6,-,N/A,,Unknown,270,2012-10-27 08:56:00
4:56 AM,25.0,19.0,78,30.36,-9999.0,Calm,Calm,-,N/A,,Unknown,0,2012-10-27 09:56:00
5:56 AM,25.0,19.0,78,30.36,-9999.0,Calm,Calm,-,N/A,,Unknown,0,2012-10-27 10:56:00
6:56 AM,24.1,18.0,77,30.37,-9999.0,Calm,Calm,-,N/A,,Unknown,0,2012-10-27 11:56:00
7:56 AM,21.9,18.0,85,30.37,-9999.0,Calm,Calm,-,N/A,,Unknown,0,2012-10-27 12:56:00
8:56 AM,23.0,19.9,88,30.38,-9999.0,Calm,Calm,-,N/A,,Unknown,0,2012-10-27 13:56:00
9:56 AM,30.9,23.0,72,30.38,-9999.0,Calm,Calm,-,N/A,,Unknown,0,2012-10-27 14:56:00
10:56 AM,35.1,21.0,57,30.37,-9999.0,South,6.9,-,N/A,,Unknown,170,2012-10-27 15:56:00
11:56 AM,37.9,21.0,51,30.35,-9999.0,SSE,8.1,-,N/A,,Unknown,160,2012-10-27 16:56:00
12:56 PM,39.9,23.0,51,30.33,-9999.0,SW,4.6,-,N/A,,Unknown,230,2012-10-27 17:56:00
1:56 PM,42.1,21.0,43,30.30,-9999.0,SSE,8.1,16.1,N/A,,Unknown,160,2012-10-27 18:56:00
2:56 PM,41.0,21.0,45,30.28,-9999.0,Variable,6.9,-,N/A,,Unknown,0,2012-10-27 19:56:00
3:56 PM,41.0,23.0,49,30.27,-9999.0,South,11.5,-,N/A,,Unknown,180,2012-10-27 20:56:00
4:56 PM,41.0,24.1,51,30.27,-9999.0,SSE,5.8,-,N/A,,Unknown,160,2012-10-27 21:56:00
5:56 PM,39.9,24.1,53,30.26,-9999.0,SE,8.1,-,N/A,,Unknown,140,2012-10-27 22:56:00
6:56 PM,39.0,26.1,60,30.27,-9999.0,SE,9.2,-,N/A,,Unknown,140,2012-10-27 23:56:00
7:56 PM,39.0,30.0,70,30.28,-9999.0,South,9.2,-,N/A,,Unknown,190,2012-10-28 00:56:00
8:56 PM,37.9,30.9,76,30.29,-9999.0,South,10.4,-,N/A,,Unknown,180,2012-10-28 01:56:00
9:56 PM,37.9,32.0,79,30.27,-9999.0,SSW,11.5,-,N/A,,Unknown,200,2012-10-28 02:56:00
10:56 PM,37.0,32.0,82,30.28,-9999.0,SSW,5.8,-,N/A,,Unknown,210,2012-10-28 03:56:00
11:56 PM,37.0,32.0,82,30.28,-9999.0,South,4.6,-,N/A,,Unknown,190,2012-10-28 04:56:00